Location: Newark
(44.3449°N, 4.8694°E)
Time: 01:12:52
(UTC+00:00)

Envisat - Pass Details

Date: 22 January 2020
Orbit: 764 x 766 km, 98.1° (Epoch: 27 February)

Event Time Altitude Azimuth Distance (km) Brightness Sun altitude
Rises 17:38:31 0° 172° (S) 3,219 6.3 -11.3°
Reaches altitude 10° 17:40:50 10° 175° (S) 2,297 5.6 -11.7°
Maximum altitude 17:45:52 69° 258° (WSW) 823 3.4 -12.5°
Drops below altitude 10° 17:50:57 10° 342° (NNW) 2,314 5.5 -13.4°
Sets 17:53:17 0° 345° (NNW) 3,244 6.3 -13.8°
